| time (UTC) | temp C | wind direction | speed KPH | gust KPH | rain 1hr cm | rain 24hr cm | rain mn cm | humidity % | barometer mb |
| 20260507073019 | 9 | 0.0 | 0.0 | 0.03 | 1.02 | 0.91 | 94 | 1013.3 | |
| 20260507072019 | 9 | 0.0 | 0.0 | 0.03 | 1.02 | 0.91 | 94 | 1013.2 | |
| 20260507071019 | 9 | 0.0 | 0.0 | 0.03 | 1.02 | 0.91 | 94 | 1013.1 | |
| 20260507070019 | 9 | 0.0 | 0.0 | 0.05 | 1.02 | 0.91 | 94 | 1013.1 | |
| 20260507065019 | 9 | 0.0 | 1.6 | 0.05 | 0.99 | 0.89 | 94 | 1013.0 | |
| 20260507064020 | 9 | 18 | 0.0 | 1.6 | 0.05 | 0.99 | 0.89 | 93 | 1012.9 |
| 20260507063019 | 9 | 0.0 | 0.0 | 0.05 | 0.99 | 0.89 | 93 | 1012.8 | |
| 20260507062019 | 9 | 346 | 0.0 | 3.2 | 0.05 | 0.99 | 0.89 | 93 | 1012.7 |
| 20260507061019 | 9 | 0.0 | 0.0 | 0.05 | 0.99 | 0.89 | 93 | 1012.6 | |
| 20260507060058 | 9 | 0.0 | 6.4 | 0.05 | 0.99 | 0.89 | 93 | 1012.5 | |
| 20260507055039 | 9 | 360 | 0.0 | 4.8 | 0.03 | 0.97 | 0.86 | 93 | 1012.3 |
| 20260507054019 | 9 | 350 | 0.0 | 6.4 | 0.05 | 0.97 | 0.86 | 93 | 1012.1 |
| 20260507053039 | 9 | 2 | 0.0 | 4.8 | 0.05 | 0.97 | 0.86 | 93 | 1012.0 |
| 20260507052019 | 9 | 3 | 0.0 | 3.2 | 0.05 | 0.97 | 0.86 | 93 | 1011.9 |
| 20260507051019 | 9 | 0.0 | 0.0 | 0.08 | 0.97 | 0.86 | 94 | 1011.7 | |
| 20260507050019 | 9 | 88 | 0.0 | 1.6 | 0.08 | 0.94 | 0.84 | 94 | 1011.6 |
| 20260507045019 | 9 | 354 | 0.0 | 4.8 | 0.10 | 0.94 | 0.84 | 94 | 1011.5 |
| 20260507044019 | 9 | 0.0 | 0.0 | 0.10 | 0.91 | 0.81 | 94 | 1011.4 | |
| 20260507043019 | 9 | 351 | 0.0 | 6.4 | 0.10 | 0.91 | 0.81 | 94 | 1011.3 |
| 20260507042037 | 10 | 354 | 0.0 | 6.4 | 0.10 | 0.89 | 0.79 | 93 | 1011.1 |
| 20260507041017 | 10 | 346 | 1.6 | 6.4 | 0.08 | 0.89 | 0.79 | 94 | 1011.0 |
| 20260507040017 | 10 | 355 | 0.0 | 4.8 | 0.05 | 0.86 | 0.76 | 93 | 1010.9 |
| 20260507035017 | 10 | 354 | 0.0 | 4.8 | 0.05 | 0.84 | 0.74 | 93 | 1010.8 |
| 20260507034017 | 10 | 352 | 0.0 | 4.8 | 0.03 | 0.81 | 0.71 | 94 | 1010.7 |
| 20260507033017 | 10 | 353 | 0.0 | 6.4 | 0.05 | 0.81 | 0.71 | 93 | 1010.6 |
| 20260507032017 | 10 | 0.0 | 1.6 | 0.03 | 0.79 | 0.71 | 94 | 1010.6 | |
| 20260507031016 | 10 | 0.0 | 0.0 | 0.03 | 0.79 | 0.71 | 94 | 1010.5 | |
| 20260507030017 | 10 | 0.0 | 0.0 | 0.05 | 0.79 | 0.71 | 94 | 1010.4 | |
| 20260507025017 | 10 | 0.0 | 0.0 | 0.08 | 0.79 | 0.71 | 94 | 1010.3 | |
| 20260507024016 | 10 | 0.0 | 0.0 | 0.13 | 0.79 | 0.71 | 94 | 1010.3 | |
| 20260507023016 | 10 | 0.0 | 0.0 | 0.13 | 0.79 | 0.69 | 94 | 1010.3 | |
| 20260507022017 | 10 | 0.0 | 0.0 | 0.15 | 0.79 | 0.69 | 94 | 1010.2 | |
| 20260507021017 | 10 | 0.0 | 0.0 | 0.15 | 0.79 | 0.69 | 94 | 1010.1 | |
| 20260507020037 | 10 | 0.0 | 0.0 | 0.25 | 0.76 | 0.66 | 94 | 1010.0 | |
| 20260507015017 | 10 | 0.0 | 0.0 | 0.28 | 0.71 | 0.61 | 94 | 1009.9 | |
| 20260507014017 | 10 | 121 | 0.0 | 1.6 | 0.30 | 0.69 | 0.58 | 94 | 1009.8 |
| 20260507013017 | 10 | 33 | 0.0 | 3.2 | 0.30 | 0.66 | 0.56 | 93 | 1009.8 |
| 20260507012018 | 10 | 123 | 0.0 | 4.8 | 0.33 | 0.64 | 0.53 | 93 | 1009.8 |
| 20260507011016 | 10 | 125 | 1.6 | 9.7 | 0.33 | 0.61 | 0.51 | 93 | 1009.8 |
| 20260507010155 | 10 | 131 | 3.2 | 9.7 | 0.23 | 0.51 | 0.41 | 92 | 1009.8 |
| 20260507005017 | 10 | 0.0 | 6.4 | 0.20 | 0.43 | 0.33 | 92 | 1009.8 | |
| 20260507004016 | 10 | 349 | 0.0 | 1.6 | 0.18 | 0.38 | 0.28 | 92 | 1009.7 |
| 20260507003037 | 10 | 117 | 0.0 | 8.0 | 0.18 | 0.36 | 0.25 | 91 | 1009.8 |
| 20260507002017 | 10 | 151 | 0.0 | 4.8 | 0.15 | 0.33 | 0.23 | 92 | 1009.8 |
| 20260507001017 | 10 | 126 | 0.0 | 11.3 | 0.15 | 0.30 | 0.20 | 91 | 1009.8 |
| 20260507000016 | 11 | 340 | 0.0 | 9.7 | 0.10 | 0.25 | 0.15 | 91 | 1009.8 |
| 20260506235017 | 11 | 355 | 0.0 | 11.3 | 0.08 | 0.23 | 0.15 | 91 | 1009.9 |
| 20260506234017 | 11 | 351 | 1.6 | 6.4 | 0.05 | 0.20 | 0.10 | 91 | 1009.8 |
| 20260506233037 | 11 | 25 | 0.0 | 8.0 | 0.05 | 0.18 | 0.08 | 91 | 1009.7 |
| 20260506232017 | 11 | 37 | 0.0 | 6.4 | 0.08 | 0.18 | 0.08 | 91 | 1009.7 |
| 20260506231017 | 11 | 48 | 1.6 | 11.3 | 0.05 | 0.15 | 0.05 | 91 | 1009.5 |
| 20260506230017 | 11 | 109 | 0.0 | 9.7 | 0.05 | 0.15 | 0.05 | 90 | 1009.4 |
| 20260506225017 | 11 | 122 | 0.0 | 8.0 | 0.08 | 0.15 | 0.05 | 90 | 1009.4 |
| 20260506224017 | 12 | 126 | 0.0 | 8.0 | 0.08 | 0.15 | 0.05 | 91 | 1009.3 |
| 20260506223017 | 12 | 125 | 0.0 | 8.0 | 0.08 | 0.13 | 0.03 | 91 | 1009.3 |
| 20260506222017 | 12 | 119 | 1.6 | 8.0 | 0.08 | 0.10 | 0.00 | 91 | 1009.2 |
| 20260506221017 | 12 | 131 | 0.0 | 8.0 | 0.08 | 0.10 | 0.00 | 91 | 1009.1 |
| 20260506220017 | 12 | 130 | 0.0 | 12.9 | 0.10 | 0.13 | 0.00 | 91 | 1009.0 |
| 20260506215017 | 12 | 127 | 3.2 | 12.9 | 0.08 | 0.10 | 0.10 | 91 | 1009.0 |
| 20260506214017 | 12 | 127 | 1.6 | 11.3 | 0.05 | 0.10 | 0.08 | 90 | 1008.9 |
| 20260506213017 | 12 | 135 | 1.6 | 11.3 | 0.05 | 0.08 | 0.05 | 90 | 1008.8 |
| 20260506212017 | 12 | 129 | 1.6 | 14.5 | 0.03 | 0.05 | 0.05 | 90 | 1008.7 |
| 20260506211017 | 12 | 125 | 3.2 | 11.3 | 0.03 | 0.05 | 0.05 | 89 | 1008.7 |
| 20260506210017 | 12 | 128 | 1.6 | 8.0 | 0.00 | 0.05 | 0.03 | 89 | 1008.7 |
| 20260506205017 | 12 | 128 | 1.6 | 8.0 | 0.00 | 0.05 | 0.03 | 88 | 1008.7 |
| 20260506204017 | 12 | 130 | 1.6 | 9.7 | 0.00 | 0.05 | 0.03 | 87 | 1008.6 |
| 20260506203017 | 13 | 130 | 0.0 | 14.5 | 0.00 | 0.05 | 0.03 | 86 | 1008.6 |
| 20260506202017 | 13 | 122 | 1.6 | 11.3 | 0.00 | 0.05 | 0.03 | 85 | 1008.5 |
| 20260506201017 | 13 | 8 | 1.6 | 11.3 | 0.00 | 0.05 | 0.03 | 85 | 1008.4 |
| 20260506200017 | 13 | 117 | 0.0 | 8.0 | 0.00 | 0.05 | 0.03 | 85 | 1008.3 |
| 20260506195037 | 13 | 0.0 | 4.8 | 0.00 | 0.05 | 0.03 | 85 | 1008.3 | |
| 20260506194017 | 13 | 111 | 0.0 | 9.7 | 0.00 | 0.05 | 0.03 | 85 | 1008.1 |
| 20260506193017 | 13 | 127 | 1.6 | 11.3 | 0.00 | 0.05 | 0.03 | 84 | 1008.0 |
| 20260506192017 | 13 | 124 | 0.0 | 6.4 | 0.00 | 0.05 | 0.03 | 84 | 1007.8 |
| 20260506191017 | 13 | 124 | 0.0 | 6.4 | 0.00 | 0.05 | 0.03 | 84 | 1007.7 |
| 20260506190018 | 13 | 103 | 0.0 | 6.4 | 0.00 | 0.05 | 0.03 | 83 | 1007.6 |
| 20260506185017 | 13 | 122 | 0.0 | 6.4 | 0.00 | 0.05 | 0.03 | 82 | 1007.5 |
| 20260506184017 | 13 | 120 | 0.0 | 12.9 | 0.00 | 0.05 | 0.03 | 82 | 1007.2 |
| 20260506183017 | 13 | 128 | 1.6 | 11.3 | 0.00 | 0.05 | 0.03 | 81 | 1007.0 |
| 20260506182057 | 13 | 88 | 0.0 | 9.7 | 0.00 | 0.05 | 0.03 | 81 | 1006.9 |
| 20260506181037 | 14 | 124 | 1.6 | 11.3 | 0.00 | 0.05 | 0.03 | 80 | 1006.9 |
| 20260506180037 | 14 | 54 | 0.0 | 16.1 | 0.00 | 0.05 | 0.03 | 79 | 1006.9 |
| 20260506175017 | 14 | 127 | 1.6 | 14.5 | 0.00 | 0.05 | 0.03 | 79 | 1006.7 |
| 20260506174017 | 15 | 126 | 1.6 | 12.9 | 0.00 | 0.05 | 0.03 | 78 | 1006.7 |
| 20260506173017 | 15 | 131 | 1.6 | 17.7 | 0.00 | 0.05 | 0.03 | 79 | 1006.6 |
| 20260506172017 | 15 | 100 | 1.6 | 16.1 | 0.00 | 0.05 | 0.03 | 78 | 1006.6 |
| 20260506171017 | 16 | 57 | 1.6 | 11.3 | 0.00 | 0.05 | 0.03 | 75 | 1006.4 |
| 20260506170017 | 16 | 121 | 3.2 | 11.3 | 0.00 | 0.08 | 0.03 | 72 | 1006.4 |
| 20260506165017 | 16 | 356 | 0.0 | 6.4 | 0.00 | 0.13 | 0.03 | 71 | 1006.2 |
| 20260506164017 | 16 | 38 | 0.0 | 11.3 | 0.00 | 0.15 | 0.03 | 69 | 1006.1 |
| 20260506163017 | 16 | 39 | 0.0 | 8.0 | 0.00 | 0.18 | 0.03 | 67 | 1006.0 |
| 20260506162017 | 16 | 2 | 1.6 | 12.9 | 0.00 | 0.20 | 0.03 | 68 | 1006.0 |
| 20260506161017 | 16 | 89 | 0.0 | 1.6 | 0.00 | 0.23 | 0.03 | 72 | 1006.1 |
| 20260506160017 | 16 | 125 | 4.8 | 14.5 | 0.00 | 0.23 | 0.03 | 72 | 1006.1 |
| 20260506155017 | 16 | 120 | 0.0 | 3.2 | 0.00 | 0.28 | 0.03 | 73 | 1006.1 |
| 20260506154017 | 16 | 127 | 0.0 | 4.8 | 0.00 | 0.33 | 0.03 | 72 | 1006.1 |
| 20260506153017 | 17 | 121 | 1.6 | 6.4 | 0.00 | 0.43 | 0.03 | 71 | 1006.1 |
| 20260506152017 | 17 | 122 | 3.2 | 11.3 | 0.00 | 0.56 | 0.03 | 70 | 1006.1 |
| 20260506151017 | 17 | 121 | 4.8 | 9.7 | 0.00 | 0.71 | 0.03 | 68 | 1006.0 |
| 20260506150017 | 17 | 120 | 4.8 | 11.3 | 0.00 | 0.84 | 0.03 | 67 | 1006.0 |
| 20260506145017 | 18 | 118 | 1.6 | 8.0 | 0.00 | 0.91 | 0.03 | 64 | 1006.0 |
| 20260506144017 | 18 | 0.0 | 1.6 | 0.00 | 0.99 | 0.03 | 60 | 1005.9 | |
| 20260506143017 | 18 | 136 | 0.0 | 1.6 | 0.00 | 1.07 | 0.03 | 59 | 1005.9 |
| 20260506142017 | 18 | 357 | 0.0 | 9.7 | 0.00 | 1.19 | 0.03 | 58 | 1006.0 |
| 20260506141017 | 19 | 332 | 0.0 | 3.2 | 0.00 | 1.32 | 0.03 | 57 | 1006.0 |
| 20260506140017 | 19 | 314 | 0.0 | 8.0 | 0.00 | 1.37 | 0.03 | 56 | 1005.9 |
| 20260506135017 | 19 | 359 | 0.0 | 3.2 | 0.00 | 1.42 | 0.03 | 56 | 1005.9 |
| 20260506134017 | 18 | 0.0 | 0.0 | 0.00 | 1.42 | 0.03 | 60 | 1005.9 | |
| 20260506133017 | 18 | 128 | 0.0 | 6.4 | 0.00 | 1.42 | 0.03 | 59 | 1005.9 |
| 20260506132017 | 18 | 3 | 0.0 | 3.2 | 0.00 | 1.42 | 0.03 | 58 | 1005.9 |
| 20260506131017 | 18 | 354 | 1.6 | 14.5 | 0.00 | 1.42 | 0.03 | 60 | 1006.0 |
| 20260506130017 | 18 | 346 | 1.6 | 9.7 | 0.00 | 1.42 | 0.03 | 58 | 1005.9 |
| 20260506125017 | 19 | 357 | 0.0 | 9.7 | 0.00 | 1.42 | 0.03 | 58 | 1005.9 |
| 20260506124017 | 18 | 356 | 0.0 | 3.2 | 0.00 | 1.42 | 0.03 | 59 | 1005.9 |
| 20260506123017 | 18 | 128 | 0.0 | 11.3 | 0.00 | 1.42 | 0.03 | 59 | 1005.9 |
| 20260506122037 | 18 | 84 | 0.0 | 3.2 | 0.00 | 1.42 | 0.03 | 60 | 1006.1 |
| 20260506121017 | 19 | 23 | 0.0 | 6.4 | 0.00 | 1.42 | 0.03 | 61 | 1006.1 |
| 20260506120037 | 19 | 353 | 0.0 | 6.4 | 0.00 | 1.42 | 0.03 | 62 | 1006.1 |
| 20260506115017 | 18 | 356 | 1.6 | 11.3 | 0.00 | 1.42 | 0.03 | 63 | 1006.2 |
| 20260506114017 | 18 | 0 | 1.6 | 6.4 | 0.00 | 1.42 | 0.03 | 65 | 1006.3 |
| 20260506113017 | 17 | 5 | 0.0 | 3.2 | 0.00 | 1.42 | 0.03 | 65 | 1006.3 |
| 20260506112037 | 17 | 83 | 3.2 | 14.5 | 0.00 | 1.42 | 0.03 | 64 | 1006.3 |
| 20260506111017 | 17 | 354 | 0.0 | 4.8 | 0.00 | 1.42 | 0.03 | 67 | 1006.4 |
| 20260506110017 | 17 | 349 | 0.0 | 3.2 | 0.00 | 1.42 | 0.03 | 66 | 1006.5 |
| 20260506105017 | 17 | 359 | 0.0 | 8.0 | 0.00 | 1.42 | 0.03 | 66 | 1006.5 |
| 20260506104017 | 18 | 131 | 0.0 | 8.0 | 0.00 | 1.42 | 0.03 | 64 | 1006.6 |
| 20260506103017 | 17 | 125 | 1.6 | 11.3 | 0.00 | 1.42 | 0.03 | 67 | 1006.6 |
| 20260506102037 | 17 | 339 | 0.0 | 1.6 | 0.00 | 1.42 | 0.03 | 70 | 1006.6 |
| 20260506101037 | 17 | 354 | 0.0 | 8.0 | 0.00 | 1.42 | 0.03 | 70 | 1006.6 |
| 20260506100017 | 17 | 354 | 0.0 | 11.3 | 0.00 | 1.42 | 0.03 | 68 | 1006.6 |
| 20260506095017 | 17 | 352 | 1.6 | 4.8 | 0.00 | 1.42 | 0.03 | 70 | 1006.6 |
| 20260506094017 | 17 | 346 | 1.6 | 8.0 | 0.00 | 1.42 | 0.03 | 72 | 1006.7 |
| 20260506093018 | 17 | 123 | 0.0 | 4.8 | 0.00 | 1.42 | 0.03 | 72 | 1006.7 |
| 20260506092017 | 16 | 124 | 3.2 | 14.5 | 0.00 | 1.42 | 0.03 | 73 | 1006.8 |
| 20260506091017 | 16 | 127 | 1.6 | 14.5 | 0.00 | 1.42 | 0.03 | 76 | 1006.8 |
| 20260506090017 | 15 | 127 | 0.0 | 4.8 | 0.00 | 1.42 | 0.03 | 78 | 1006.9 |
| 20260506085017 | 16 | 0.0 | 0.0 | 0.00 | 1.42 | 0.03 | 78 | 1006.9 | |
| 20260506084037 | 15 | 126 | 0.0 | 4.8 | 0.00 | 1.42 | 0.03 | 78 | 1006.9 |
| 20260506083017 | 16 | 34 | 0.0 | 9.7 | 0.00 | 1.42 | 0.03 | 79 | 1007.0 |
| 20260506082037 | 15 | 1 | 1.6 | 6.4 | 0.00 | 1.42 | 0.03 | 79 | 1006.9 |
| 20260506081017 | 15 | 124 | 3.2 | 14.5 | 0.00 | 1.42 | 0.03 | 80 | 1006.7 |